Location: Biharia
(46.4333°N, 22.8000°E)
Time: 10:37:32
(UTC+00:00)

Landsat 5 - Pass Details

Date: 16 October 2021
Orbit: 528 x 652 km, 98.2° (Epoch: 07 December)

Event Time Altitude Azimuth Distance (km) Brightness Sun altitude
Rises 16:10:45 0° 20° (NNE) 2,871 6.7 -6.0°
Reaches altitude 10° 16:13:01 10° 28° (NNE) 1,982 5.8 -6.4°
Maximum altitude 16:17:06 40° 99° (E) 925 4.0 -7.1°
Drops below altitude 10° 16:21:17 10° 169° (S) 2,026 6.2 -7.8°
Sets 16:23:37 0° 177° (S) 2,942 7.1 -8.2°
